Total_Precipitation_Accumulation
0.12 0.22 0.58 0.38 0.14 0.10 0.38 0.18 0.25 0.09 0.04 0.04 0.04 0.05 0.05 0.04 0.03 0.03 0.03 0.02 0.02 0.00 0.00 0.01 0.05 0.23 0.17 0.14 0.20 0.19 0.16 0.13 0.09 0.08 0.09 0.07 0.05 0.07 0.07 0.06 0.06 0.04 0.08 0.15
0.34 0.25 0.35 0.27 0.07 0.11 0.12 0.04 0.04 0.02 0.04 0.05 0.05 0.03 0.08 0.06 0.02 0.01 0.00 0.00 0.00 0.00 0.00 0.00 0.03 0.08 0.15 0.24 0.15 0.18 0.11 0.11 0.08 0.08 0.08 0.09 0.08 0.05 0.08 0.08 0.08 0.12 0.11 0.11
0.48 0.18 0.19 0.26 0.08 0.06 0.09 0.07 0.03 0.04 0.05 0.07 0.25 0.45 0.39 0.10 0.04 0.02 0.02 0.00 0.00 0.00 0.00 0.00 0.01 0.11 0.51 0.64 0.29 0.28 0.15 0.17 0.17 0.13 0.20 0.20 0.15 0.13 0.11 0.15 0.24 0.23 0.22 0.26
0.82 0.44 0.44 0.25 0.10 0.14 0.15 0.12 0.06 0.05 0.07 0.08 0.13 0.18 0.12 0.04 0.02 0.02 0.01 0.01 0.00 0.00 0.00 0.00 0.03 0.28 0.83 0.87 0.28 0.25 0.22 0.33 0.57 0.48 0.52 0.60 0.75 0.63 0.64 0.52 0.46 0.54 0.56 0.58
0.42 0.30 0.15 0.04 0.07 0.11 0.09 0.08 0.03 0.03 0.02 0.01 0.04 0.13 0.14 0.04 0.02 0.02 0.01 0.01 0.01 0.00 0.00 0.02 0.05 0.18 0.35 0.75 0.92 0.72 0.63 0.81 0.80 0.70 0.74 0.84 1.06 1.14 0.80 0.97 0.78 0.78 0.68 0.55
0.15 0.21 0.08 0.02 0.01 0.02 0.02 0.02 0.00 0.00 0.01 0.00 0.00 0.04 0.22 0.29 0.12 0.05 0.02 0.01 0.01 0.01 0.02 0.04 0.03 0.08 0.20 0.35 0.94 1.21 0.79 0.81 0.88 0.75 0.73 0.89 0.99 0.98 0.72 0.61 0.65 0.58 0.63 0.60
0.13 0.16 0.01 0.00 0.00 0.00 0.03 0.02 0.00 0.00 0.00 0.00 0.00 0.00 0.01 0.16 0.24 0.16 0.10 0.07 0.09 0.09 0.17 0.22 0.17 0.32 0.49 0.49 0.81 1.10 0.86 0.88 0.70 0.73 0.45 0.61 0.69 0.62 0.47 0.37 0.42 0.43 0.39 0.32
0.06 0.09 0.00 0.00 0.00 0.00 0.00 0.00 0.00 0.01 0.01 0.00 0.01 0.00 0.00 0.01 0.04 0.16 0.17 0.15 0.16 0.24 0.55 0.66 0.68 0.58 0.54 0.44 0.32 0.33 0.44 0.46 0.31 0.26 0.23 0.18 0.19 0.27 0.24 0.14 0.10 0.04 0.01 0.00
0.00 0.00 0.00 0.00 0.00 0.00 0.00 0.00 0.00 0.00 0.00 0.00 0.01 0.00 0.00 0.01 0.00 0.00 0.01 0.02 0.05 0.15 0.16 0.09 0.13 0.10 0.14 0.05 0.02 0.02 0.02 0.01 0.01 0.01 0.01 0.00 0.00 0.00 0.00 0.00 0.00 0.00 0.00 0.00
0.00 0.00 0.00 0.00 0.00 0.00 0.00 0.00 0.00 0.01 0.01 0.00 0.00 0.00 0.01 0.02 0.02 0.03 0.02 0.00 0.00 0.00 0.00 0.00 0.00 0.00 0.00 0.00 0.00 0.00 0.00 0.00 0.00 0.00 0.00 0.00 0.00 0.00 0.00 0.00 0.00 0.00 0.00 0.00
0.00 0.00 0.00 0.00 0.00 0.00 0.00 0.00 0.00 0.00 0.00 0.00 0.00 0.00 0.00 0.00 0.01 0.02 0.06 0.07 0.04 0.01 0.01 0.00 0.00 0.00 0.00 0.00 0.00 0.00 0.00 0.00 0.00 0.00 0.00 0.00 0.00 0.00 0.00 0.00 0.00 0.00 0.00 0.00
0.00 0.00 0.00 0.00 0.00 0.00 0.00 0.00 0.00 0.00 0.00 0.00 0.00 0.00 0.00 0.00 0.00 0.00 0.01 0.02 0.06 0.11 0.09 0.04 0.01 0.00 0.00 0.00 0.00 0.00 0.00 0.00 0.00 0.00 0.00 0.00 0.00 0.00 0.00 0.00 0.00 0.00 0.00 0.00
0.00 0.00 0.00 0.00 0.00 0.00 0.00 0.00 0.00 0.00 0.00 0.00 0.00 0.00 0.01 0.00 0.00 0.00 0.00 0.00 0.00 0.03 0.03 0.02 0.01 0.00 0.00 0.00 0.00 0.00 0.00 0.00 0.00 0.00 0.00 0.00 0.00 0.00 0.00 0.00 0.00 0.00 0.00 0.00
0.01 0.00 0.00 0.00 0.00 0.00 0.00 0.00 0.00 0.00 0.00 0.00 0.00 0.00 0.00 0.00 0.00 0.00 0.00 0.00 0.00 0.00 0.00 0.00 0.00 0.01 0.01 0.00 0.00 0.00 0.00 0.00 0.00 0.00 0.00 0.00 0.00 0.00 0.00 0.00 0.00 0.00 0.00 0.00
0.01 0.01 0.01 0.01 0.00 0.00 0.00 0.00 0.00 0.00 0.00 0.00 0.00 0.00 0.00 0.00 0.00 0.00 0.00 0.00 0.00 0.00 0.00 0.00 0.00 0.00 0.00 0.00 0.00 0.00 0.00 0.00 0.00 0.00 0.00 0.00 0.00 0.00 0.00 0.00 0.00 0.00 0.00 0.00
0.13 0.06 0.05 0.03 0.02 0.02 0.00 0.00 0.00 0.00 0.00 0.01 0.01 0.01 0.00 0.00 0.00 0.00 0.00 0.01 0.02 0.01 0.00 0.00 0.00 0.00 0.00 0.00 0.01 0.00 0.00 0.00 0.00 0.00 0.00 0.00 0.00 0.00 0.00 0.00 0.00 0.00 0.00 0.00
0.40 0.27 0.13 0.18 0.10 0.06 0.02 0.00 0.00 0.00 0.01 0.02 0.03 0.03 0.02 0.02 0.01 0.00 0.00 0.00 0.01 0.01 0.00 0.00 0.00 0.00 0.00 0.00 0.01 0.02 0.04 0.05 0.04 0.01 0.00 0.00 0.00 0.00 0.00 0.00 0.00 0.00 0.00 0.00
0.27 0.25 0.10 0.11 0.13 0.09 0.03 0.00 0.00 0.00 0.03 0.06 0.05 0.03 0.02 0.01 0.00 0.00 0.00 0.00 0.00 0.00 0.00 0.00 0.00 0.00 0.00 0.00 0.00 0.00 0.02 0.04 0.04 0.02 0.02 0.01 0.00 0.00 0.00 0.00 0.00 0.00 0.00 0.00
0.08 0.16 0.09 0.01 0.01 0.01 0.00 0.00 0.00 0.00 0.01 0.00 0.00 0.01 0.01 0.02 0.00 0.00 0.00 0.00 0.00 0.00 0.01 0.01 0.02 0.01 0.01 0.01 0.01 0.00 0.01 0.01 0.02 0.01 0.01 0.01 0.01 0.00 0.00 0.00 0.00 0.00 0.00 0.00
0.26 0.17 0.09 0.04 0.05 0.08 0.08 0.06 0.06 0.06 0.05 0.02 0.01 0.00 0.00 0.00 0.00 0.00 0.00 0.00 0.00 0.00 0.01 0.01 0.03 0.02 0.01 0.02 0.02 0.01 0.01 0.03 0.04 0.03 0.03 0.03 0.02 0.00 0.00 0.00 0.00 0.00 0.00 0.00
0.56 0.59 0.41 0.40 0.35 0.27 0.19 0.15 0.12 0.11 0.07 0.06 0.07 0.05 0.03 0.02 0.01 0.01 0.00 0.00 0.00 0.00 0.01 0.01 0.02 0.03 0.02 0.02 0.02 0.02 0.06 0.09 0.10 0.08 0.07 0.06 0.03 0.01 0.00 0.00 0.00 0.00 0.00 0.00
0.25 0.32 0.36 0.23 0.09 0.17 0.25 0.21 0.13 0.10 0.09 0.08 0.10 0.06 0.05 0.03 0.02 0.01 0.03 0.04 0.04 0.02 0.02 0.03 0.03 0.03 0.04 0.06 0.05 0.07 0.15 0.16 0.15 0.12 0.09 0.06 0.05 0.03 0.01 0.01 0.00 0.00 0.00 0.00
0.14 0.18 0.20 0.16 0.07 0.06 0.10 0.21 0.20 0.17 0.19 0.18 0.16 0.13 0.10 0.09 0.09 0.09 0.11 0.13 0.12 0.04 0.03 0.07 0.10 0.11 0.11 0.10 0.07 0.14 0.22 0.19 0.15 0.12 0.10 0.08 0.06 0.04 0.02 0.01 0.00 0.00 0.00 0.00
0.09 0.12 0.16 0.19 0.12 0.06 0.03 0.02 0.06 0.14 0.20 0.18 0.18 0.20 0.19 0.17 0.16 0.15 0.13 0.13 0.12 0.11 0.14 0.18 0.16 0.14 0.13 0.10 0.15 0.21 0.21 0.20 0.19 0.16 0.12 0.09 0.05 0.03 0.01 0.00 0.00 0.00 0.00 0.00
0.16 0.15 0.14 0.11 0.08 0.05 0.02 0.00 0.00 0.00 0.01 0.03 0.06 0.10 0.15 0.15 0.13 0.11 0.07 0.06 0.11 0.17 0.19 0.19 0.16 0.14 0.14 0.17 0.22 0.19 0.18 0.17 0.15 0.13 0.09 0.06 0.04 0.01 0.00 0.00 0.00 0.00 0.01 0.00
0.05 0.04 0.02 0.02 0.04 0.04 0.03 0.01 0.00 0.00 0.00 0.00 0.00 0.01 0.04 0.07 0.08 0.08 0.08 0.11 0.12 0.15 0.13 0.13 0.14 0.13 0.11 0.15 0.13 0.10 0.09 0.08 0.08 0.07 0.05 0.03 0.01 0.00 0.00 0.00 0.00 0.00 0.00 0.00
0.08 0.08 0.05 0.02 0.00 0.00 0.00 0.00 0.00 0.00 0.00 0.00 0.00 0.00 0.01 0.03 0.06 0.07 0.07 0.13 0.15 0.13 0.07 0.05 0.07 0.07 0.07 0.08 0.04 0.03 0.03 0.02 0.01 0.00 0.00 0.00 0.00 0.00 0.00 0.00 0.00 0.00 0.00 0.00